Chillicothe, MO

6:38 AM CDT on March 29, 2017 (GMT -0500)
Chillicothe

Weather History for KCDJ - June, 2013

Change the Weather History Date:

Sunday, June 30, 2013

  Actual Average (KIRK) Record (KIRK)
Temperature  
Mean Temperature 70 °F -  
Max Temperature 80 °F 84 °F 101 °F (1931)
Min Temperature 62 °F 63 °F 47 °F (1943)
Cooling Degree Days 6    
Growing Degree Days 20 (Base 50)    
Moisture  
Dew Point 57 °F    
Average Humidity 64    
Maximum Humidity 84    
Minimum Humidity 45    
Precipitation  
Precipitation 0.00 in - - ()
Sea Level Pressure  
Sea Level Pressure 29.95 in    
Wind  
Wind Speed 7 mph (North)    
Max Wind Speed 14 mph    
Max Gust Speed 23 mph    
Averages and records for this station are not official NWS values.
T = Trace of Precipitation, MM = Missing Value Source: NWS Daily Summary

Daily Weather History Graph

Daily Weather History Graph

Search for Another Location

Airport or City:

Trip Planner

Search our weather history database for the weather conditions in past years. The results will help you decide how hot, cold, wet, or windy it might be!

Date:

Astronomy

Jun. 30, 2013 Rise Set
Actual Time 5:49 AM CDT 8:46 PM CDT
Civil Twilight 5:16 AM CDT 9:19 PM CDT
Nautical Twilight 4:35 AM CDT 10:00 PM CDT
Astronomical Twilight 3:47 AM CDT 10:48 PM CDT
Moon 12:47 AM CDT (6/30) 2:02 PM CDT (6/30)
Length of Visible Light 16h 02m
Length of Day
14h 57m
Last Quarter, 45% of the Moon is Illuminated
Jun 30
Last Quarter
Jul 8
New
Jul 15
First Quarter
Jul 22
Full
Jul 29
Last Quarter

Hourly Weather History & Observations

Time (CDT) Temp. Dew Point Humidity Pressure Visibility Wind Dir Wind Speed Gust Speed Precip Events Conditions
12:52 AM 66.0 °F 57.0 °F 73% 29.86 in - North 5.8 mph - N/A   Unknown
1:52 AM 64.9 °F 57.0 °F 75% 29.87 in - North 6.9 mph - N/A   Unknown
2:52 AM 64.0 °F 57.0 °F 78% 29.88 in - North 5.8 mph - N/A   Unknown
3:52 AM 64.0 °F 57.0 °F 78% 29.89 in - Variable 5.8 mph - N/A   Unknown
4:52 AM 62.1 °F 57.0 °F 84% 29.90 in - Calm Calm - N/A   Unknown
5:52 AM 62.1 °F 57.0 °F 84% 29.92 in - Calm Calm - N/A   Unknown
6:52 AM 64.0 °F 57.0 °F 78% 29.93 in - Variable 5.8 mph - N/A   Unknown
7:52 AM 66.0 °F 57.0 °F 73% 29.94 in - North 9.2 mph - N/A   Unknown
8:52 AM 69.1 °F 57.9 °F 68% 29.95 in - NNW 8.1 mph - N/A   Unknown
9:52 AM 72.0 °F 59.0 °F 64% 29.95 in - Variable 6.9 mph - N/A   Unknown
10:52 AM 75.0 °F 59.0 °F 57% 29.96 in - North 11.5 mph 18.4 mph N/A   Unknown
11:52 AM 75.0 °F 59.0 °F 57% 29.96 in - North 10.4 mph 20.7 mph N/A   Unknown
12:52 PM 77.0 °F 57.9 °F 52% 29.95 in - North 11.5 mph - N/A   Unknown
1:52 PM 77.0 °F 57.9 °F 52% 29.95 in - North 10.4 mph 20.7 mph N/A   Unknown
2:52 PM 77.0 °F 57.0 °F 50% 29.96 in - NNE 10.4 mph 23.0 mph N/A   Unknown
3:52 PM 79.0 °F 55.9 °F 45% 29.96 in - NNE 13.8 mph - N/A   Unknown
4:52 PM 77.0 °F 57.0 °F 50% 29.96 in - North 9.2 mph 23.0 mph N/A   Unknown
5:52 PM 79.0 °F 55.9 °F 45% 29.96 in - NNE 11.5 mph - N/A   Unknown
6:52 PM 75.9 °F 55.9 °F 50% 29.98 in - NNE 10.4 mph 19.6 mph N/A   Unknown
7:52 PM 73.9 °F 57.0 °F 55% 29.98 in - North 5.8 mph - N/A   Unknown
8:52 PM 71.1 °F 55.9 °F 59% 30.00 in - North 3.5 mph - N/A   Unknown
9:52 PM 68.0 °F 57.0 °F 68% 30.01 in - North 3.5 mph - N/A   Unknown
10:52 PM 66.9 °F 55.9 °F 68% 30.02 in - North 4.6 mph - N/A   Unknown
11:52 PM 66.9 °F 54.0 °F 63% 30.03 in - North 5.8 mph - N/A   Unknown